Location: Heathcote
(40.9845°N, 73.7746°W)
Time: 04:32:02
(UTC+00:00)

Cosmos 1553 Rocket - Pass Details

Date: 29 October 2020
Orbit: 940 x 1009 km, 82.9° (Epoch: 23 November)

Event Time Altitude Azimuth Distance (km) Brightness Sun altitude
Rises 22:53:10 0° 181° (S) 3,712 7.2 -11.7°
Reaches altitude 10° 22:55:42 10° 179° (S) 2,760 6.5 -12.2°
Maximum altitude 23:02:02 77° 95° (E) 1,016 4.0 -13.4°
Drops below altitude 10° 23:08:19 10° 10° (N) 2,735 6.2 -14.5°
Sets 23:10:49 0° 9° (N) 3,676 6.9 -15.0°
